GW3397 Weather Reports


Display with metric or nautical units.
time (UTC)temp
F
wind
direction
speed
MPH
gust
MPH
rain 1hr
in
rain 24hr
in
rain mn
in
humidity
%
barometer
mb
20260906191415 71 73 3.0 3.0 0.00 0.00 0.00 66 1021.4
20260906190914 72 215 3.0 7.0 0.00 0.00 0.00 64 1021.5
20260906190413 71 151 4.0 6.0 0.00 0.00 0.00 68 1021.2
20260906185908 69 94 3.0 5.0 0.00 0.00 0.00 71 1021.6
20260906185407 70 150 4.0 5.0 0.00 0.00 0.00 67 1021.7
20260906184906 71 6 3.0 3.0 0.00 0.00 0.00 67 1021.7
20260906184401 71 6 3.0 3.0 0.00 0.00 0.00 67 1021.7
20260906183857 71 109 1.0 5.0 0.00 0.00 0.00 68 1021.7
20260906183353 70 168 0.0 6.0 0.00 0.00 0.00 66 1021.8
20260906182848 70 50 1.0 2.0 0.00 0.00 0.00 66 1021.8
20260906182343 70 205 0.0 2.0 0.00 0.00 0.00 67 1021.8
20260906181838 70 215 1.0 5.0 0.00 0.00 0.00 68 1021.9
20260906181334 70 199 3.0 5.0 0.00 0.00 0.00 65 1021.9
20260906180829 68 161 1.0 5.0 0.00 0.00 0.00 75 1021.9
20260906180324 68 109 3.0 5.0 0.00 0.00 0.00 72 1022.0
20260906175821 68 175 1.0 3.0 0.00 0.00 0.00 75 1021.9
20260906175317 67 96 3.0 5.0 0.00 0.00 0.00 73 1022.1
20260906174816 68 130 8.0 10.0 0.00 0.00 0.00 72 1022.0
20260906174316 68 130 8.0 10.0 0.00 0.00 0.00 72 1021.9
20260906173811 70 139 7.0 10.0 0.00 0.00 0.00 72 1021.9
20260906173306 70 120 8.0 11.0 0.00 0.00 0.00 72 1022.0
20260906172805 71 81 6.0 8.0 0.00 0.00 0.00 71 1021.9
20260906172305 71 119 7.0 9.0 0.00 0.00 0.00 69 1021.9
20260906171756 71 153 2.0 2.0 0.00 0.00 0.00 67 1022.1
20260906171251 71 153 2.0 2.0 0.00 0.00 0.00 67 1022.3
20260906170747 70 229 3.0 3.0 0.00 0.00 0.00 68 1022.1
20260906170243 70 182 3.0 3.0 0.00 0.00 0.00 71 1022.1
20260906165738 70 140 1.0 2.0 0.00 0.00 0.00 72 1022.0
20260906165238 70 72 1.0 2.0 0.00 0.00 0.00 74 1022.3
20260906164738 70 62 1.0 3.0 0.00 0.00 0.00 73 1022.0
20260906164233 71 67 1.0 3.0 0.00 0.00 0.00 71 1022.2
20260906163729 70 46 2.0 2.0 0.00 0.00 0.00 69 1022.2
20260906163225 70 42 1.0 1.0 0.00 0.00 0.00 73 1022.1
20260906162721 69 60 1.0 3.0 0.00 0.00 0.00 75 1022.4
20260906162216 70 122 4.0 5.0 0.00 0.00 0.00 74 1022.2
20260906161711 69 129 3.0 3.0 0.00 0.00 0.00 74 1022.5
20260906161210 69 129 3.0 3.0 0.00 0.00 0.00 74 1022.2
20260906160709 67 115 5.0 6.0 0.00 0.00 0.00 79 1022.5
20260906160209 67 102 2.0 2.0 0.00 0.00 0.00 81 1022.4
20260906155706 67 142 3.0 3.0 0.00 0.00 0.00 80 1022.5
20260906155202 67 139 2.0 2.0 0.00 0.00 0.00 77 1022.5
20260906154657 67 303 0.0 0.0 0.00 0.00 0.00 78 1022.2
20260906154156 68 343 2.0 2.0 0.00 0.00 0.00 77 1022.0
20260906153655 68 343 2.0 2.0 0.00 0.00 0.00 77 1022.3
20260906153150 68 343 2.0 2.0 0.00 0.00 0.00 77 1022.2
20260906152645 68 343 2.0 2.0 0.00 0.00 0.00 77 1022.2
20260906152139 67 272 1.0 2.0 0.00 0.00 0.00 79 1022.3
20260906151634 66 293 2.0 2.0 0.00 0.00 0.00 79 1022.4
20260906151130 68 296 1.0 2.0 0.00 0.00 0.00 79 1022.4
20260906150625 67 294 1.0 2.0 0.00 0.00 0.00 78 1022.3
20260906150120 68 263 0.0 0.0 0.00 0.00 0.00 81 1022.4
20260906145619 68 263 0.0 1.0 0.00 0.00 0.00 80 1021.8
20260906145114 68 286 1.0 1.0 0.00 0.00 0.00 79 1022.2
20260906144608 67 350 2.0 2.0 0.00 0.00 0.00 83 1022.1
20260906144103 67 350 2.0 2.0 0.00 0.00 0.00 83 1022.0
20260906143558 66 279 0.0 1.0 0.00 0.00 0.00 83 1022.0
20260906143055 68 352 1.0 2.0 0.00 0.00 0.00 78 1022.2
20260906142553 68 352 1.0 2.0 0.00 0.00 0.00 78 1021.9
20260906142049 68 352 1.0 2.0 0.00 0.00 0.00 78 1021.9
20260906141548 69 354 1.0 5.0 0.00 0.00 0.00 77 1021.8
20260906141044 70 71 3.0 5.0 0.00 0.00 0.00 74 1021.8
20260906140543 69 82 1.0 2.0 0.00 0.00 0.00 77 1021.8
20260906140037 68 174 3.0 3.0 0.00 0.00 0.00 77 1021.8
20260906135534 69 77 1.0 1.0 0.00 0.00 0.00 78 1022.1
20260906135030 66 228 0.0 1.0 0.00 0.00 0.00 85 1022.0
20260906134525 66 228 0.0 1.0 0.00 0.00 0.00 85 1022.1
20260906134020 66 297 2.0 2.0 0.00 0.00 0.00 83 1022.0
20260906133516 66 297 2.0 2.0 0.00 0.00 0.00 83 1022.0
20260906133011 66 303 3.0 3.0 0.00 0.00 0.00 82 1022.0
20260906132507 66 287 3.0 3.0 0.00 0.00 0.00 84 1021.8
20260906132002 65 322 0.0 0.0 0.00 0.00 0.00 86 1021.9
20260906131457 64 64 2.0 2.0 0.00 0.00 0.00 86 1022.1
20260906130953 64 64 2.0 2.0 0.00 0.00 0.00 86 1022.2
20260906130451 64 291 4.0 5.0 0.00 0.00 0.00 86 1022.1
20260906125946 64 346 3.0 3.0 0.00 0.00 0.00 87 1022.0
20260906125438 64 324 5.0 6.0 0.00 0.00 0.00 91 1021.9
20260906124937 63 323 4.0 5.0 0.00 0.00 0.00 93 1021.9
20260906124434 63 323 4.0 5.0 0.00 0.00 0.00 93 1021.9
20260906123933 62 324 3.0 3.0 0.00 0.00 0.00 95 1022.1
20260906123432 62 324 3.0 3.0 0.00 0.00 0.00 95 1021.9
20260906122927 62 287 1.0 1.0 0.00 0.00 0.00 95 1022.0
20260906122422 61 336 1.0 1.0 0.00 0.00 0.00 96 1021.8
20260906121919 61 336 1.0 1.0 0.00 0.00 0.00 96 1021.8
20260906121415 61 336 1.0 1.0 0.00 0.00 0.00 96 1022.0
20260906120911 61 295 4.0 5.0 0.00 0.00 0.00 96 1021.8
20260906120406 60 277 1.0 2.0 0.00 0.00 0.00 97 1021.6
20260906115902 60 277 1.0 2.0 0.00 0.00 0.00 97 1021.7
20260906115358 60 277 1.0 2.0 0.00 0.00 0.00 97 1021.9
20260906114857 60 277 1.0 2.0 0.00 0.00 0.00 97 1021.9
20260906114352 60 277 1.0 2.0 0.00 0.00 0.00 97 1021.6
20260906113847 60 267 0.0 0.0 0.00 0.00 0.00 97 1021.4
20260906113346 60 267 0.0 0.0 0.00 0.00 0.00 97 1021.5
20260906112842 60 267 0.0 0.0 0.00 0.00 0.00 97 1021.5
20260906112338 60 267 0.0 0.0 0.00 0.00 0.00 97 1021.4
20260906111837 60 267 0.0 0.0 0.00 0.00 0.00 97 1021.4
20260906111332 60 267 0.0 0.0 0.00 0.00 0.00 97 1020.9
20260906110827 60 267 0.0 0.0 0.00 0.00 0.00 97 1021.3
20260906110323 60 267 0.0 0.0 0.00 0.00 0.00 97 1021.0
20260906105822 60 267 0.0 0.0 0.00 0.00 0.00 97 1021.1
20260906105318 60 267 0.0 0.0 0.00 0.00 0.00 97 1020.9
20260906104813 60 267 0.0 0.0 0.00 0.00 0.00 97 1021.0
20260906104311 60 267 0.0 0.0 0.00 0.00 0.00 97 1020.9
20260906103809 60 264 0.0 0.0 0.00 0.00 0.00 97 1021.0
20260906103308 60 288 0.0 0.0 0.00 0.00 0.00 97 1020.8
20260906102805 60 295 0.0 0.0 0.00 0.00 0.00 97 1020.9
20260906102258 60 297 0.0 0.0 0.00 0.00 0.00 97 1020.7
20260906101754 60 291 0.0 0.0 0.00 0.00 0.00 97 1020.6
20260906101248 60 302 0.0 0.0 0.00 0.00 0.00 97 1020.4
20260906100744 60 311 0.0 0.0 0.00 0.00 0.00 97 1020.4
20260906100243 60 282 0.0 0.0 0.00 0.00 0.00 97 1020.3
20260906095738 60 312 0.0 0.0 0.00 0.00 0.00 97 1020.4
20260906095234 60 328 0.0 0.0 0.00 0.00 0.00 97 1020.4
20260906094733 60 299 0.0 0.0 0.00 0.00 0.00 97 1020.4
20260906094228 60 18 0.0 0.0 0.00 0.00 0.00 97 1020.3
20260906093724 60 304 0.0 0.0 0.00 0.00 0.00 97 1020.3
20260906093214 60 288 0.0 0.0 0.00 0.00 0.00 97 1020.4
20260906092709 60 293 0.0 0.0 0.00 0.00 0.00 97 1020.1
20260906092209 60 278 0.0 0.0 0.00 0.00 0.00 97 1020.0
20260906091705 60 264 0.0 0.0 0.00 0.00 0.00 97 1019.9
20260906091201 60 294 0.0 0.0 0.00 0.00 0.00 97 1020.0
20260906090657 60 279 0.0 0.0 0.00 0.00 0.00 97 1020.0
20260906090156 60 286 0.0 0.0 0.00 0.00 0.00 97 1019.9
20260906085655 60 266 0.0 0.0 0.00 0.00 0.00 97 1019.7
20260906085154 60 279 0.0 0.0 0.00 0.00 0.00 97 1019.8
20260906084649 60 259 0.0 0.0 0.00 0.00 0.00 97 1019.5
20260906084149 60 281 0.0 0.0 0.00 0.00 0.00 97 1019.6
20260906083644 60 315 1.0 2.0 0.00 0.00 0.00 97 1019.6
20260906083139 60 278 0.0 0.0 0.00 0.00 0.00 97 1019.5
20260906082634 60 297 0.0 0.0 0.00 0.00 0.00 97 1019.7
20260906082130 61 300 0.0 0.0 0.00 0.00 0.00 97 1019.7
20260906081626 61 323 0.0 2.0 0.00 0.00 0.00 97 1019.5
20260906081120 61 311 0.0 1.0 0.00 0.00 0.00 97 1019.4
20260906080617 0 0.0 0.0 0.00 0.00 0.00 1019.3
20260906080113 0 0.0 0.0 0.00 0.00 0.00 1019.4
20260906075607 0 0.0 0.0 0.00 0.00 0.00 1019.4
20260906075101 61 256 0.0 1.0 0.00 0.00 0.00 96 1019.4
20260906074556 61 256 0.0 1.0 0.00 0.00 0.00 96 1019.6
20260906074049 61 256 0.0 1.0 0.00 0.00 0.00 96 1019.7
20260906073544 61 256 0.0 1.0 0.00 0.00 0.00 96 1019.6
20260906073040 61 256 0.0 1.0 0.00 0.00 0.00 96 1019.6
20260906072535 61 256 0.0 1.0 0.00 0.00 0.00 96 1019.5
20260906072031 61 256 0.0 1.0 0.00 0.00 0.00 96 1019.4
20260906071527 61 256 0.0 1.0 0.00 0.00 0.00 96 1019.3
20260906071022 61 256 0.0 1.0 0.00 0.00 0.00 96 1019.2
20260906070519 61 256 0.0 1.0 0.00 0.00 0.00 96 1019.3
20260906070014 61 256 0.0 1.0 0.00 0.00 0.00 96 1019.2
20260906065513 61 256 0.0 1.0 0.00 0.00 0.00 96 1019.4
20260906065009 0 0.0 0.0 0.00 0.00 0.00 1019.2
20260906064505 0 0.0 0.0 0.00 0.00 0.00 1019.3
20260906064000 0 0.0 0.0 0.00 0.00 0.00 1019.2
20260906063456 0 0.0 0.0 0.00 0.00 0.00 1019.2
20260906062955 0 0.0 0.0 0.00 0.00 0.00 1019.0
20260906062450 0 0.0 0.0 0.00 0.00 0.00 1019.0
20260906061946 0 0.0 0.0 0.00 0.00 0.00 1019.3
20260906061441 0 0.0 0.0 0.00 0.00 0.00 1019.3
20260906060935 0 0.0 0.0 0.00 0.00 0.00 1019.1
20260906060433 0 0.0 0.0 0.00 0.00 0.00 1019.3
20260906055929 0 0.0 0.0 0.00 0.00 0.00 1019.3
20260906055425 0 0.0 0.0 0.00 0.00 0.00 1019.3
20260906054920 0 0.0 0.0 0.00 0.00 0.00 1019.5
20260906054414 0 0.0 0.0 0.00 0.00 0.00 1019.5
20260906053911 0 0.0 0.0 0.00 0.00 0.00 1019.6
20260906053407 0 0.0 0.0 0.00 0.00 0.00 1019.5
20260906052902 0 0.0 0.0 0.00 0.00 0.00 1019.4
20260906052358 0 0.0 0.0 0.00 0.00 0.00 1019.5
20260906051855 0 0.0 0.0 0.00 0.00 0.00 1019.4
20260906051354 0 0.0 0.0 0.00 0.00 0.00 1019.5
20260906050850 0 0.0 0.0 0.00 0.00 0.00 1019.4
20260906050345 0 0.0 0.0 0.00 0.00 0.00 1019.5
20260906045844 0 0.0 0.0 0.00 0.00 0.00 1019.6
20260906045338 0 0.0 0.0 0.00 0.00 0.00 1019.3
20260906044834 0 0.0 0.0 0.00 0.00 0.00 1019.4
20260906044329 0 0.0 0.0 0.00 0.00 0.00 1019.6
20260906043826 0 0.0 0.0 0.00 0.00 0.00 1019.4
20260906043321 0 0.0 0.0 0.00 0.00 0.00 1019.4
20260906042820 0 0.0 0.0 0.00 0.00 0.00 1019.4
20260906042319 0 0.0 0.0 0.00 0.00 0.00 1019.6
20260906041815 0 0.0 0.0 0.00 0.00 0.00 1019.5
20260906041310 0 0.0 0.0 0.00 0.00 0.00 1019.4
20260906040805 0 0.0 0.0 0.00 0.00 0.00 1019.5
20260906040301 0 0.0 0.0 0.00 0.00 0.00 1019.1
20260906035756 0 0.0 0.0 0.00 0.00 0.00 1019.2
20260906035251 0 0.0 0.0 0.00 0.00 0.00 1019.1
20260906034746 0 0.0 0.0 0.00 0.00 0.00 1019.2
20260906034241 62 215 0.0 0.0 0.00 0.00 0.00 95 1019.1
20260906033737 62 215 0.0 0.0 0.00 0.00 0.00 95 1019.1
20260906033236 62 215 0.0 0.0 0.00 0.00 0.00 95 1019.2
20260906032733 62 215 0.0 0.0 0.00 0.00 0.00 95 1019.2
20260906032233 62 215 0.0 0.0 0.00 0.00 0.00 95 1019.1
20260906031728 62 215 0.0 0.0 0.00 0.00 0.00 95 1019.0
20260906031224 62 215 0.0 0.0 0.00 0.00 0.00 95 1019.1
20260906030723 62 215 0.0 0.0 0.00 0.00 0.00 95 1019.0
20260906030218 62 215 0.0 0.0 0.00 0.00 0.00 95 1018.9
20260906025717 62 215 0.0 0.0 0.00 0.00 0.00 95 1018.9
20260906025212 62 215 0.0 0.0 0.00 0.00 0.00 95 1018.4
20260906024711 62 215 0.0 0.0 0.00 0.00 0.00 95 1018.7
20260906024210 63 278 0.0 0.0 0.00 0.00 0.00 95 1018.6
20260906023706 63 278 0.0 0.0 0.00 0.00 0.00 95 1018.5
20260906023201 63 278 0.0 0.0 0.00 0.00 0.00 95 1018.6
20260906022656 63 278 0.0 0.0 0.00 0.00 0.00 95 1018.6
20260906022152 63 278 0.0 0.0 0.00 0.00 0.00 95 1018.6
20260906021648 63 278 0.0 0.0 0.00 0.00 0.00 95 1018.6
20260906021146 63 278 0.0 0.0 0.00 0.00 0.00 95 1018.7
20260906020641 63 278 0.0 0.0 0.00 0.00 0.00 95 1018.6
20260906020136 63 247 0.0 0.0 0.00 0.00 0.00 95 1018.7
20260906015630 63 267 0.0 0.0 0.00 0.00 0.00 95 1018.7
20260906015128 63 209 1.0 1.0 0.00 0.00 0.00 95 1018.5
20260906014623 63 209 1.0 1.0 0.00 0.00 0.00 95 1018.4
20260906014119 63 209 1.0 1.0 0.00 0.00 0.00 95 1018.4
20260906013614 63 256 0.0 0.0 0.00 0.00 0.00 95 1018.6
20260906013110 63 279 0.0 0.0 0.00 0.00 0.00 95 1018.5
20260906012605 65 272 0.0 0.0 0.00 0.00 0.00 94 1018.4
20260906012105 65 272 0.0 0.0 0.00 0.00 0.00 94 1018.4
20260906011601 65 272 0.0 0.0 0.00 0.00 0.00 94 1018.2
20260906011055 65 272 0.0 0.0 0.00 0.00 0.00 94 1018.2
20260906010550 65 272 0.0 0.0 0.00 0.00 0.00 94 1018.4
20260906010046 65 272 0.0 0.0 0.00 0.00 0.00 94 1018.3
20260906005546 65 272 0.0 0.0 0.00 0.00 0.00 94 1018.3
20260906005045 65 272 0.0 0.0 0.00 0.00 0.00 94 1018.0
20260906004544 65 272 0.0 0.0 0.00 0.00 0.00 94 1018.0
20260906004039 65 272 0.0 0.0 0.00 0.00 0.00 94 1018.1
20260906003534 65 272 0.0 0.0 0.00 0.00 0.00 94 1018.0
20260906003031 66 259 0.0 0.0 0.00 0.00 0.00 94 1018.2
20260906002531 66 253 0.0 0.0 0.00 0.00 0.00 94 1018.2
20260906002025 66 224 0.0 0.0 0.00 0.00 0.00 94 1018.3
20260906001521 66 156 0.0 0.0 0.00 0.00 0.00 94 1018.1
20260906001016 66 281 0.0 0.0 0.00 0.00 0.00 94 1018.1
20260906000512 66 295 0.0 0.0 0.00 0.00 0.00 93 1018.6
20260906000012 66 295 0.0 0.0 0.00 0.00 0.00 93 1018.2
20260905235506 66 285 0.0 0.0 0.00 0.00 0.00 92 1018.1
20260905235001 67 282 0.0 0.0 0.00 0.00 0.00 93 1017.9
20260905234456 67 237 1.0 1.0 0.00 0.00 0.00 92 1017.8
20260905233950 67 249 1.0 1.0 0.00 0.00 0.00 92 1018.0
20260905233446 67 296 0.0 0.0 0.00 0.00 0.00 92 1017.9
20260905232944 67 302 0.0 0.0 0.00 0.00 0.00 91 1018.1
20260905232441 68 269 0.0 0.0 0.00 0.00 0.00 91 1018.1
20260905231936 68 263 0.0 0.0 0.00 0.00 0.00 91 1017.9
20260905231432 68 293 0.0 0.0 0.00 0.00 0.00 90 1017.8
20260905230928 68 296 0.0 0.0 0.00 0.00 0.00 89 1018.0
20260905230427 68 268 0.0 0.0 0.00 0.00 0.00 88 1018.1
20260905225925 68 334 0.0 0.0 0.00 0.00 0.00 87 1018.1
20260905225420 69 327 0.0 0.0 0.00 0.00 0.00 88 1018.0
20260905224915 70 328 2.0 2.0 0.00 0.00 0.00 82 1017.9
20260905224411 70 328 2.0 2.0 0.00 0.00 0.00 82 1018.1
20260905223905 70 328 2.0 2.0 0.00 0.00 0.00 82 1017.7
20260905223403 70 328 2.0 2.0 0.00 0.00 0.00 82 1017.8
20260905222903 70 328 2.0 2.0 0.00 0.00 0.00 82 1017.6
20260905222402 70 328 2.0 2.0 0.00 0.00 0.00 82 1017.6
20260905221858 70 10 1.0 2.0 0.00 0.00 0.00 83 1017.6
20260905221355 70 19 2.0 2.0 0.00 0.00 0.00 83 1017.4
20260905220850 70 1 1.0 2.0 0.00 0.00 0.00 83 1017.5
20260905220347 71 358 3.0 3.0 0.00 0.00 0.00 82 1017.3
20260905215846 71 340 1.0 2.0 0.00 0.00 0.00 82 1017.4
20260905215341 71 327 0.0 1.0 0.00 0.00 0.00 82 1017.4
20260905214832 71 344 2.0 2.0 0.00 0.00 0.00 81 1017.3
20260905214327 71 297 2.0 2.0 0.00 0.00 0.00 81 1017.3
20260905213822 72 298 3.0 3.0 0.00 0.00 0.00 79 1017.0
20260905213318 73 312 2.0 2.0 0.00 0.00 0.00 77 1017.0
20260905212812 73 312 2.0 5.0 0.00 0.00 0.00 77 1016.9
20260905212307 73 323 2.0 5.0 0.00 0.00 0.00 76 1016.9
20260905211801 74 297 3.0 5.0 0.00 0.00 0.00 76 1016.9
20260905211256 71 284 2.0 2.0 0.00 0.00 0.00 81 1017.3
20260905210753 71 284 2.0 2.0 0.00 0.00 0.00 81 1016.9
20260905210253 71 284 2.0 2.0 0.00 0.00 0.00 81 1017.0
20260905205751 71 284 2.0 2.0 0.00 0.00 0.00 81 1016.9
20260905205246 70 289 2.0 3.0 0.00 0.00 0.00 82 1016.8
20260905204745 71 308 7.0 8.0 0.00 0.00 0.00 80 1017.0
20260905204236 71 308 7.0 8.0 0.00 0.00 0.00 80 1017.1
20260905203735 72 279 4.0 5.0 0.00 0.00 0.00 80 1017.0
20260905203230 72 290 3.0 3.0 0.00 0.00 0.00 79 1017.0
20260905202725 72 300 4.0 6.0 0.00 0.00 0.00 78 1016.9
20260905202221 72 301 8.0 11.0 0.00 0.00 0.00 78 1016.8
20260905201716 74 269 6.0 6.0 0.00 0.00 0.00 75 1016.9
20260905201211 75 299 6.0 13.0 0.00 0.00 0.00 72 1016.8
20260905200706 75 318 5.0 7.0 0.00 0.00 0.00 71 1016.7
20260905200202 75 291 3.0 5.0 0.00 0.00 0.00 73 1017.0
20260905195700 73 285 1.0 2.0 0.00 0.00 0.00 76 1016.9
20260905195154 73 301 1.0 2.0 0.00 0.00 0.00 76 1016.7
20260905194649 73 321 1.0 2.0 0.00 0.00 0.00 74 1016.7
20260905194144 74 246 4.0 5.0 0.00 0.00 0.00 73 1016.9
20260905193638 74 281 1.0 5.0 0.00 0.00 0.00 75 1016.9
20260905193133 74 291 3.0 5.0 0.00 0.00 0.00 75 1016.5
20260905192628 74 334 4.0 6.0 0.00 0.00 0.00 76 1016.6
20260905192125 73 299 3.0 3.0 0.00 0.00 0.00 76 1016.6